Date String (YYYY-MM-DD hh:mm:ss) UTC,Instrument flags,absolute air pressure of the measurement (hPa),sample flow rate (lpm),inlet stack bypass flow (lpm),air temperature of the measurement (°C),ambient temperature measured by the external sensor (°C),aerosol sample conditioner tube jacket temperature (°C),OPC LED temperature (°C),internal box temperature (°C),relative humidity of the measurement (%),span deviation,mass concentration of particles derived from Lorenz-Mie calculation of OPC scattering (μg/m³),mass concentration of particles derived from Lorenz-Mie calculation of OPC scattering (μg/m³),mass concentration of particles derived from Lorenz-Mie calculation of OPC scattering (μg/m³)
DateTimeUTC,F1_M11,P_M11,Q1_M11,Q2_M11,T1_M11,T2_M11,T3_M11,T4_M11,T5_M11,U1_M11,ZSPAN_M11,X0_M11,X2_M11,X1_M11
2024-02-26 23:00:00,SystemResetWarning,0815.3,4.99,000.00,024.4,023.6,000.0,032.7,026.1,07.6,0000.0,0003.35,0001.45,0000.72
2024-02-26 23:01:00,SystemResetWarning,0815.3,4.99,000.00,024.4,023.6,000.0,032.7,026.2,07.6,0000.0,0003.41,0001.39,0000.71
2024-02-26 23:02:00,SystemResetWarning,0815.3,4.99,000.00,024.4,023.6,000.0,032.7,026.2,07.7,0000.0,0004.91,0001.46,0000.72
2024-02-26 23:03:00,SystemResetWarning,0815.2,4.99,000.00,024.4,023.6,000.0,032.7,026.2,07.7,0000.0,0005.69,0001.48,0000.72
2024-02-26 23:04:00,SystemResetWarning,0815.3,5.01,000.00,024.4,023.6,000.0,032.7,026.2,07.7,0000.0,0005.79,0001.50,0000.72
2024-02-26 23:05:00,SystemResetWarning,0815.2,5.00,000.00,024.4,023.6,000.0,032.7,026.2,07.7,0000.0,0005.71,0001.48,0000.73
2024-02-26 23:06:00,SystemResetWarning,0815.2,5.00,000.00,024.4,023.6,000.0,032.7,026.2,07.7,0000.0,0005.63,0001.47,0000.73
2024-02-26 23:07:00,SystemResetWarning,0815.2,5.00,000.00,024.4,023.6,000.0,032.7,026.2,07.8,0000.0,0005.54,0001.45,0000.73
2024-02-26 23:08:00,SystemResetWarning,0815.2,5.00,000.00,024.4,023.6,000.0,032.7,026.2,07.7,0000.0,0005.59,0001.45,0000.73
2024-02-26 23:09:00,SystemResetWarning,0815.2,5.00,000.00,024.4,023.6,000.0,032.7,026.2,07.8,0000.0,0005.64,0001.43,0000.72
2024-02-26 23:10:00,SystemResetWarning,0815.1,5.01,000.00,024.4,023.6,000.0,032.7,026.2,07.8,0000.0,0005.48,0001.34,0000.71
2024-02-26 23:11:00,SystemResetWarning,0815.0,5.00,000.00,024.4,023.6,000.0,032.7,026.2,07.8,0000.0,0005.19,0001.33,0000.72
2024-02-26 23:12:00,SystemResetWarning,0815.1,5.00,000.00,024.4,023.6,000.0,032.7,026.2,07.8,0000.0,0005.11,0001.33,0000.72
2024-02-26 23:13:00,SystemResetWarning,0815.1,5.00,000.00,024.4,023.6,000.0,032.8,026.2,07.9,0000.0,0004.17,0001.33,0000.72
2024-02-26 23:14:00,SystemResetWarning,0815.2,5.00,000.00,024.4,023.6,000.0,032.8,026.2,07.8,0000.0,0003.22,0001.29,0000.73
2024-02-26 23:15:00,SystemResetWarning,0815.2,4.99,000.00,024.4,023.6,000.0,032.8,026.2,07.8,0000.0,0003.12,0001.29,0000.74
2024-02-26 23:16:00,SystemResetWarning,0815.1,5.00,000.00,024.4,023.6,000.0,032.8,026.2,07.9,0000.0,0003.14,0001.30,0000.74
2024-02-26 23:17:00,SystemResetWarning,0815.2,4.99,000.00,024.4,023.6,000.0,032.8,026.2,07.9,0000.0,0003.24,0001.32,0000.74
2024-02-26 23:18:00,SystemResetWarning,0815.2,5.00,000.00,024.4,023.6,000.0,032.8,026.2,08.1,0000.0,0003.57,0001.35,0000.73
2024-02-26 23:19:00,SystemResetWarning,0815.2,5.00,000.00,024.4,023.7,000.0,032.8,026.2,08.1,0000.0,0004.94,0001.38,0000.73
2024-02-26 23:20:00,SystemResetWarning,0815.1,5.00,000.00,024.4,023.7,000.0,032.8,026.2,07.9,0000.0,0005.04,0001.37,0000.74
2024-02-26 23:21:00,SystemResetWarning,0815.1,5.00,000.00,024.5,023.7,000.0,032.8,026.3,07.9,0000.0,0005.05,0001.37,0000.74
2024-02-26 23:22:00,SystemResetWarning,0815.1,4.99,000.00,024.5,023.7,000.0,032.8,026.3,08.0,0000.0,0005.26,0001.34,0000.73
2024-02-26 23:23:00,SystemResetWarning,0815.2,5.00,000.00,024.5,023.7,000.0,032.8,026.3,08.0,0000.0,0007.33,0001.37,0000.74
2024-02-26 23:24:00,SystemResetWarning,0815.2,5.00,000.00,024.5,023.7,000.0,032.8,026.3,08.0,0000.0,0007.38,0001.42,0000.75
2024-02-26 23:25:00,SystemResetWarning,0815.2,5.00,000.00,024.5,023.7,000.0,032.8,026.3,07.7,0000.0,0007.21,0001.40,0000.76
2024-02-26 23:26:00,SystemResetWarning,0815.1,5.00,000.00,024.5,023.7,000.0,032.8,026.3,07.9,0000.0,0007.02,0001.38,0000.75
2024-02-26 23:27:00,SystemResetWarning,0815.1,5.00,000.00,024.5,023.7,000.0,032.8,026.3,08.1,0000.0,0007.12,0001.43,0000.75
2024-02-26 23:28:00,SystemResetWarning,0815.2,5.00,000.00,024.5,023.7,000.0,032.8,026.3,08.2,0000.0,0007.15,0001.46,0000.76
2024-02-26 23:29:00,SystemResetWarning,0815.2,4.99,000.00,024.5,023.7,000.0,032.8,026.3,08.3,0000.0,0007.25,0001.45,0000.76
2024-02-26 23:30:00,SystemResetWarning,0815.2,4.99,000.00,024.5,023.7,000.0,032.8,026.3,08.2,0000.0,0005.76,0001.40,0000.76
2024-02-26 23:31:00,SystemResetWarning,0815.2,5.01,000.00,024.5,023.7,000.0,032.8,026.3,08.4,0000.0,0005.56,0001.45,0000.76
2024-02-26 23:32:00,SystemResetWarning,0815.1,5.01,000.00,024.5,023.7,000.0,032.8,026.3,08.3,0000.0,0005.52,0001.48,0000.76
2024-02-26 23:33:00,SystemResetWarning,0815.2,5.00,000.00,024.5,023.7,000.0,032.8,026.3,08.3,0000.0,0005.38,0001.50,0000.76
2024-02-26 23:34:00,SystemResetWarning,0815.2,5.00,000.00,024.5,023.7,000.0,032.8,026.3,08.4,0000.0,0003.24,0001.47,0000.76
2024-02-26 23:35:00,SystemResetWarning,0815.2,4.99,000.00,024.5,023.7,000.0,032.8,026.3,08.4,0000.0,0003.16,0001.44,0000.76
2024-02-26 23:36:00,SystemResetWarning,0815.1,5.00,000.00,024.5,023.7,000.0,032.8,026.3,08.1,0000.0,0003.15,0001.44,0000.76
2024-02-26 23:37:00,SystemResetWarning,0815.1,5.00,000.00,024.5,023.8,000.0,032.8,026.3,08.1,0000.0,0003.38,0001.51,0000.77
2024-02-26 23:38:00,SystemResetWarning,0815.1,5.00,000.00,024.5,023.8,000.0,032.8,026.3,08.3,0000.0,0003.34,0001.49,0000.76
2024-02-26 23:39:00,SystemResetWarning,0815.1,5.00,000.00,024.5,023.8,000.0,032.8,026.3,08.0,0000.0,0003.32,0001.46,0000.76
2024-02-26 23:40:00,SystemResetWarning,0815.1,5.01,000.00,024.5,023.8,000.0,032.8,026.3,08.1,0000.0,0003.24,0001.48,0000.76
2024-02-26 23:41:00,SystemResetWarning,0815.1,5.00,000.00,024.5,023.8,000.0,032.8,026.3,08.3,0000.0,0003.24,0001.49,0000.75
2024-02-26 23:42:00,SystemResetWarning,0815.1,5.00,000.00,024.5,023.8,000.0,032.8,026.3,08.4,0000.0,0003.22,0001.46,0000.76
2024-02-26 23:43:00,SystemResetWarning,0815.1,5.01,000.00,024.5,023.7,000.0,032.9,026.3,08.5,0000.0,0003.60,0001.50,0000.77
2024-02-26 23:44:00,SystemResetWarning,0815.2,5.00,000.00,024.5,023.7,000.0,032.9,026.4,08.3,0000.0,0003.77,0001.51,0000.78
2024-02-26 23:45:00,SystemResetWarning,0815.1,5.00,000.00,024.5,023.7,000.0,032.9,026.4,08.2,0000.0,0003.71,0001.51,0000.78
2024-02-26 23:46:00,SystemResetWarning,0815.1,5.00,000.00,024.6,023.8,000.0,032.9,026.3,07.8,0000.0,0003.64,0001.50,0000.77
2024-02-26 23:47:00,SystemResetWarning,0815.1,5.01,000.00,024.6,023.8,000.0,032.9,026.4,08.1,0000.0,0003.74,0001.51,0000.77
2024-02-26 23:48:00,SystemResetWarning,0815.2,5.00,000.00,024.6,023.8,000.0,032.9,026.4,08.2,0000.0,0003.66,0001.47,0000.76
2024-02-26 23:49:00,SystemResetWarning,0815.2,4.99,000.00,024.6,023.8,000.0,032.9,026.4,08.3,0000.0,0003.64,0001.46,0000.77
2024-02-26 23:50:00,SystemResetWarning,0815.2,5.00,000.00,024.6,023.8,000.0,032.9,026.4,08.1,0000.0,0003.68,0001.47,0000.77
2024-02-26 23:51:00,SystemResetWarning,0815.1,4.99,000.00,024.6,023.8,000.0,032.9,026.4,07.6,0000.0,0003.57,0001.44,0000.77
2024-02-26 23:52:00,SystemResetWarning,0815.0,5.01,000.00,024.6,023.8,000.0,032.9,026.4,07.5,0000.0,0003.67,0001.47,0000.78
2024-02-26 23:53:00,SystemResetWarning,0815.1,5.01,000.00,024.6,023.7,000.0,032.9,026.4,07.6,0000.0,0003.86,0001.50,0000.77
2024-02-26 23:54:00,SystemResetWarning,0815.2,4.99,000.00,024.6,023.7,000.0,032.9,026.4,07.6,0000.0,0003.70,0001.45,0000.77
2024-02-26 23:55:00,SystemResetWarning,0815.3,5.00,000.00,024.6,023.7,000.0,032.9,026.4,07.7,0000.0,0003.96,0001.45,0000.77
2024-02-26 23:56:00,SystemResetWarning,0815.2,5.00,000.00,024.6,023.8,000.0,032.9,026.4,07.5,0000.0,0004.31,0001.48,0000.78
2024-02-26 23:57:00,SystemResetWarning,0815.2,5.00,000.00,024.6,023.8,000.0,032.9,026.4,07.4,0000.0,0005.93,0001.57,0000.78
2024-02-26 23:58:00,SystemResetWarning,0815.2,5.00,000.00,024.6,023.8,000.0,032.9,026.4,07.2,0000.0,0007.09,0001.58,0000.78
2024-02-26 23:59:00,SystemResetWarning,0815.2,5.00,000.00,024.6,023.8,000.0,032.9,026.4,06.9,0000.0,0007.02,0001.60,0000.78
